Location: Dos Palmas
(32.4468°N, 116.8732°W)
Time: 03:55:32
(UTC+00:00)

Cosmos 1315 Rocket - Pass Details

Date: 20 June 2021
Orbit: 528 x 568 km, 81.2° (Epoch: 29 July)

Event Time Altitude Azimuth Distance (km) Brightness Sun altitude
Rises 04:06:08 0° 355° (N) 2,769 7.1 -12.9°
Reaches altitude 10° 04:08:20 10° 357° (N) 1,866 6.1 -13.2°
Maximum altitude 04:12:27 69° 82° (E) 603 2.8 -13.9°
Enters shadow 04:15:12 20° 162° (SSE) 1,330 4.3 -14.3°
